Terminal Aerodrome Forecast
Issued by NWS

Home | Current Version | Previous Version | Text Only | Print | Product List | Glossary On
Versions: 1 2 3 4 5 6 7 8 9 10 11 12 13 14 15 16 17 18 19 20 21 22 23 24 25 26
000
FTUS41 KPBZ 141323 AAA
TAFFKL
TAF AMD
KFKL 141323Z 1413/1512 33008KT P6SM -SHSN BKN015 OVC045
     FM141500 31012G18KT P6SM OVC015
     FM142300 29005KT P6SM BKN025
     FM150700 VRB05KT P6SM SCT025=

USA.gov is the U.S. government's official web portal to all federal, state and local government web resources and services.